sat.trackr.live / text

‹ back to catalog

SCS-01 M

NORAD 63993 · 2025-100M

PAYLOAD ACTIVE UNKNOWN

§ Identity

Operator
Country
PRC
Launch date
2025-05-14
Launch site
JSC
Launch vehicle
Mass (kg)
RCS (m²)

External: N2YO · Heavens-Above · Gunter

§ Orbital elements

Epoch: 2026-05-25T04:18:05.295744Z

Period
93.88 min
Inclination
97.3662°
Eccentricity
0.0009282
Mean motion
15.33916771 rev/d
Perigee alt
457.8 km
Apogee alt
470.5 km
Semi-major
6,842.3 km
B*
8.7407e-4
RAAN
221.5794°
Arg perigee
39.1370°
Mean anomaly
321.0542°
Rev number
5,732

§ Raw data

SCS-01 M1 63993U 25100M   26145.17922796  .00028710  00000+0  87407-3 0  99952 63993  97.3662 221.5794 0009282  39.1370 321.0542 15.33916771 57326

JSON: /api/v1/satellites/63993 · /tle

For live sub-satellite position, see the globe view (requires WebGL).

§ Visibility from observer

Set your observer location to see the next 7 days of passes ≥ 10°. The values pass through the URL so the page stays shareable.

No JS? Fill the form by hand. The geolocation button needs JavaScript.